Simultaneous Nadir Overpasses (SNOs) Predictions

Prediction of SNOs over PacNW region [( 10.00, 139.50) to ( 22.70, 165.60)] between AQUA and NPP Satellites:

Table of predicted SNOs over PacNW region for the next 30.0 days since TLE Epoch: 5/18/2013
Index Date (AQUA) Time (AQUA) AQUA Lat,Lon Date (NPP) Time (NPP) NPP Lat,Lon Distance(km) Time Diff (sec)
1 05/21/2013 15:59:57 22.61, 147.44 05/21/2013 16:01:27 23.26, 144.45 313.88 90
2 05/29/2013 15:10:32 22.59, 159.77 05/29/2013 15:10:44 23.18, 157.13 278.12 12
3 06/06/2013 15:59:54 22.62, 147.43 06/06/2013 16:01:28 23.30, 144.49 309.56 94




NCC Satellite Simultaneous Nadir Overpasses (SNOs) Prediction Service
